Stations météo

Publicité
Rennes, France (7130): Température de l'air & dewpoint: 17.01.2019 22:00:00 - 23.01.2019 22:00:00 (CET)Rennes, France (7130): Température de l'air 5cm: 17.01.2019 22:00:00 - 23.01.2019 22:00:00 (CET)Rennes, France (7130): Température de l'air -20cm & Température de l'air -100cm: 17.01.2019 22:00:00 - 23.01.2019 22:00:00 (CET)Rennes, France (7130): Vitesse du vent & gusts: 17.01.2019 22:00:00 - 23.01.2019 22:00:00 (CET)Rennes, France (7130): Direction du vent: 17.01.2019 22:00:00 - 23.01.2019 22:00:00 (CET)Rennes, France (7130): reduced air pressure: 17.01.2019 22:00:00 - 23.01.2019 22:00:00 (CET)Rennes, France (7130): visibility: 17.01.2019 22:00:00 - 23.01.2019 22:00:00 (CET)Rennes, France (7130): Ensoleillement: 17.01.2019 22:00:00 - 23.01.2019 22:00:00 (CET)Rennes, France (7130): Quantités de précipitations: 17.01.2019 22:00:00 - 23.01.2019 22:00:00 (CET)
Date & Time tt [°C] td [°C] tt 5cm [°C] tt -20cm [°C] tt -100cm [°C] ff [km/h] ff [knt] fx [km/h] fx [knt] dd ppp [hPa] vv [km] sd [min] rr [mm]
23.01.2019 22:00:00 2,0 0,2 -3,2 6,8 8,8 6 3 11 6 NNW 1009,0 27 0 0,0
23.01.2019 21:00:00 2,0 0,1 -3,1 6,8 8,8 4 2 10 5 W 1008,7 37 0 0,0
23.01.2019 20:00:00 3,1 0,3 0,7 6,8 8,8 6 4 18 10 N 1008,3 50 0 0,0
23.01.2019 19:00:00 4,1 0,8 2,9 6,8 8,8 13 7 27 14 N 1007,5 47 0 0,0
23.01.2019 18:00:00 4,5 0,8 3,2 6,8 8,9 14 8 37 20 N 1006,5 53 16 0,0
23.01.2019 17:00:00 5,2 1,3 4,5 6,7 8,8 23 12 39 21 N 1005,3 50 33 0,2
23.01.2019 16:00:00 6,0 2,5 6,3 6,7 8,8 25 13 45 24 N 1004,7 20 60 0,2
23.01.2019 15:00:00 6,1 2,5 6,8 6,7 8,8 29 16 48 26 N 1004,1 17 52 0,0
23.01.2019 14:00:00 5,1 2,6 4,0 6,7 8,8 31 17 57 31 NNW 1003,7 23 12 0,0
23.01.2019 13:00:00 6,7 2,0 4,9 6,7 8,8 26 14 42 23 NNW 1003,3 41 45 0,0
23.01.2019 12:00:00 5,2 1,7 4,1 6,8 8,9 28 15 48 26 NNW 1002,9 16 11 0,2
23.01.2019 11:00:00 4,3 2,5 2,3 6,8 8,9 22 12 39 21 NNW 1002,4 10 15 0,4
23.01.2019 10:00:00 2,6 1,9 0,3 6,8 8,8 6 3 34 19 NNW 1002,1 18 0 0,4
23.01.2019 09:00:00 2,0 2,0 -0,8 6,8 8,9 6 3 13 7 NNE 1001,4 15 0 0,0
23.01.2019 08:00:00 2,5 2,2 -0,5 6,8 8,9 11 6 24 13 W 1000,5 50 0 0,4
23.01.2019 07:00:00 2,6 2,2 0,8 6,9 8,9 9 5 28 15 WNW 1000,0 50 0 0,8
23.01.2019 06:00:00 3,5 3,4 3,0 6,9 8,9 8 4 26 14 NW 999,4 17 0 0,6
23.01.2019 05:00:00 3,8 3,4 2,9 6,9 8,9 18 10 27 15 NW 999,4 4,2 0 1,9
23.01.2019 04:00:00 3,5 3,2 2,2 6,9 8,9 12 7 30 16 WNW 998,6 3,7 0 3,2
23.01.2019 03:00:00 4,5 3,6 2,6 6,9 8,9 12 7 22 12 WNW 999,0 20 0 0,0
23.01.2019 02:00:00 4,6 3,3 3,3 6,9 8,9 11 6 19 10 W 999,0 48 0 0,0
23.01.2019 01:00:00 4,6 3,3 3,0 6,9 8,9 10 6 20 11 W 999,8 56 0 0,0
23.01.2019 00:00:00 4,5 3,0 3,3 7,0 8,9 9 5 31 17 W 1000,4 55 0 0,0
22.01.2019 23:00:00 5,1 3,6 3,5 7,0 8,9 16 9 24 13 W 1001,0 53 0 0,0
22.01.2019 22:00:00 4,8 3,5 2,0 6,9 8,9 10 5 17 9 WSW 1001,4 50 0 0,0
22.01.2019 21:00:00 4,8 3,3 2,8 6,9 8,9 11 6 17 9 WSW 1002,1 46 0 0,0
22.01.2019 20:00:00 5,5 3,8 4,1 6,9 8,9 10 5 18 10 WSW 1002,7 45 0 0,0
22.01.2019 19:00:00 6,1 3,8 5,1 6,9 8,9 13 7 20 11 WSW 1003,1 50 0 0,0
22.01.2019 18:00:00 6,8 3,6 5,9 6,8 8,9 13 7 33 18 WSW 1003,5 60 0 0,0
22.01.2019 17:00:00 7,7 3,9 7,2 6,8 8,9 10 6 25 14 W 1004,2 52 0 0,0
22.01.2019 16:00:00 8,6 3,4 9,4 6,7 8,9 14 8 31 17 WSW 1004,5 50 36 0,0
22.01.2019 15:00:00 8,6 3,2 9,6 6,7 8,9 16 9 29 16 WSW 1005,5 48 8 0,0
22.01.2019 14:00:00 8,3 3,9 10,5 6,6 9,0 14 7 29 16 W 1006,7 39 54 0,0
22.01.2019 13:00:00 8,1 4,3 10,7 6,6 9,0 17 9 25 13 W 1007,9 27 60 0,0
22.01.2019 12:00:00 7,4 4,4 9,7 6,6 9,0 14 8 23 13 WNW 1008,6 20 60 0,0
22.01.2019 11:00:00 5,4 4,0 1,3 6,6 9,0 11 6 19 11 W 1008,6 33 35 0,0
22.01.2019 10:00:00 3,3 2,7 1,5 6,6 9,0 11 6 15 8 WNW 1008,7 19 0 0,0
22.01.2019 09:00:00 3,4 3,1 0,8 6,6 9,0 6 4 18 10 W 1008,7 26 0 0,0
22.01.2019 08:00:00 4,7 4,6 3,7 6,6 9,0 11 6 18 10 NW 1008,9 10 0 -
22.01.2019 07:00:00 4,6 4,6 3,5 6,6 9,0 5 3 19 11 WNW 1009,0 2,8 0 0,8
22.01.2019 06:00:00 4,7 4,7 4,0 6,6 9,0 10 5 33 18 SSW 1009,4 1,5 0 2,0
22.01.2019 05:00:00 4,2 4,2 3,5 6,6 9,0 15 8 32 18 S 1010,2 2,6 0 1,2
22.01.2019 04:00:00 3,9 3,6 3,4 6,6 9,0 11 6 29 16 SSW 1011,5 3,5 0 0,6
22.01.2019 03:00:00 4,1 3,1 3,4 6,6 9,0 22 12 35 19 S 1013,1 6 0 0,0
22.01.2019 02:00:00 3,8 2,5 2,6 6,7 9,0 22 12 33 18 S 1014,8 8 0 0,0
22.01.2019 01:00:00 3,3 2,1 1,1 6,7 9,0 13 7 24 13 S 1016,6 6 0 0,0
22.01.2019 00:00:00 2,2 1,5 -0,5 6,7 9,1 12 7 19 11 S 1017,7 5 0 0,0
21.01.2019 23:00:00 1,5 0,8 -0,7 6,8 9,0 7 4 15 8 S 1019,1 5 0 0,0
21.01.2019 22:00:00 1,1 0,5 -2,8 6,8 9,0 11 6 14 8 S 1019,7 4,6 0 0,0
21.01.2019 21:00:00 1,7 0,4 -3,0 6,8 9,0 8 4 11 6 S 1020,7 5 0 0,0
21.01.2019 20:00:00 1,6 0,6 -3,2 6,8 9,1 8 4 9 5 S 1021,5 4,7 0 0,0
21.01.2019 19:00:00 2,7 0,9 -3,1 6,8 9,1 4 2 7 4 SSW 1022,4 6 0 0,0
21.01.2019 18:00:00 4,1 0,6 -2,1 6,8 9,1 5 3 7 4 WSW 1022,4 10 22 0,0
21.01.2019 17:00:00 5,2 0,6 4,6 6,7 9,0 3 2 8 5 WSW 1022,7 13 24 0,0
21.01.2019 16:00:00 6,4 0,1 10,6 6,7 9,1 5 3 13 7 WSW 1023,0 16 60 0,0
21.01.2019 15:00:00 6,3 0,0 10,4 6,7 9,1 6 4 15 8 NE 1023,3 19 60 0,0
21.01.2019 14:00:00 5,9 0,4 8,9 6,7 9,1 10 5 22 12 N 1024,2 12 60 0,0
21.01.2019 13:00:00 5,3 1,6 9,0 6,8 9,1 10 6 19 10 NNE 1025,1 9 60 0,0
21.01.2019 12:00:00 3,3 2,9 5,3 6,8 9,1 3 2 7 4 NNW 1025,8 5 60 0,0
21.01.2019 11:00:00 0,9 0,9 -1,1 6,9 9,1 0 0 4 2 N 1025,7 2,9 54 0,0
21.01.2019 10:00:00 -1,5 -1,5 -6,5 6,9 9,1 4 2 6 3 WNW 1025,4 2,2 29 0,0
21.01.2019 09:00:00 -2,1 -2,1 -7,2 7,0 9,1 0 0 6 3 N 1025,2 0,2 0 0,0
21.01.2019 08:00:00 -2,7 -2,7 -7,5 7,1 9,1 3 2 7 4 WNW 1025,0 0,2 0 0,0
21.01.2019 07:00:00 -2,5 -2,5 -8,1 7,1 9,1 6 3 7 4 NW 1024,8 0,1 0 0,0
21.01.2019 06:00:00 -1,6 -1,6 -7,5 7,1 9,0 5 3 7 4 NNW 1024,2 0,1 0 0,0
21.01.2019 05:00:00 -2,0 -2,0 -6,8 7,3 9,1 3 2 8 4 NW 1024,1 0,2 0 0,0
21.01.2019 04:00:00 -0,4 -0,4 -5,1 7,3 9,1 5 3 9 5 NNW 1024,2 0,1 0 0,0
21.01.2019 03:00:00 -0,3 -0,3 -6,5 7,4 9,1 7 4 8 5 WNW 1024,1 0,2 0 0,0
21.01.2019 02:00:00 0,2 0,2 -4,3 7,4 9,1 8 5 10 6 NNW 1024,1 0,2 0 0,0
21.01.2019 01:00:00 1,1 1,0 -2,9 7,4 9,1 7 4 12 6 N 1023,8 2,8 0 0,0
21.01.2019 00:00:00 1,2 1,1 -2,0 7,5 9,1 9 5 15 8 N 1023,2 6 0 0,0
20.01.2019 23:00:00 1,3 1,0 -1,4 7,5 9,1 9 5 14 7 N 1022,6 7 0 0,0
20.01.2019 22:00:00 1,6 1,0 -1,2 7,5 9,1 10 6 15 8 N 1021,8 9 0 0,0
20.01.2019 21:00:00 2,5 1,9 -0,7 7,6 9,1 9 5 14 7 N 1021,1 5 0 0,0
20.01.2019 20:00:00 3,2 3,1 -1,4 7,6 9,1 7 4 10 5 N 1020,5 6 0 0,0
20.01.2019 19:00:00 3,1 3,0 -1,3 7,6 9,1 7 4 10 5 NNW 1019,8 6 0 0,0
20.01.2019 18:00:00 4,7 3,8 1,8 7,6 9,1 4 2 16 9 N 1018,9 10 0 0,0
20.01.2019 17:00:00 5,8 4,3 5,3 7,6 9,1 11 6 21 11 N 1018,0 12 0 0,0
20.01.2019 16:00:00 6,0 4,3 5,8 7,6 9,1 11 6 31 17 NNE 1017,4 14 0 0,0
20.01.2019 15:00:00 6,1 4,7 5,6 7,5 9,1 16 9 29 16 NNE 1016,9 15 0 0,2
20.01.2019 14:00:00 7,0 4,5 7,2 7,5 9,1 18 10 29 15 N 1016,5 14 15 0,0
20.01.2019 13:00:00 7,2 5,3 7,8 7,5 9,1 15 8 27 14 N 1016,2 11 17 0,0
20.01.2019 12:00:00 6,7 5,5 7,1 7,5 9,1 10 6 17 9 N 1015,8 9 1 0,0
20.01.2019 11:00:00 6,4 6,1 6,5 7,5 9,1 11 6 26 14 N 1014,8 9 0 0,0
20.01.2019 10:00:00 6,0 6,0 4,6 7,5 9,1 12 7 22 12 N 1013,8 7 1 0,0
20.01.2019 09:00:00 4,9 4,9 4,0 7,5 9,1 3 2 8 4 NW 1012,9 2,3 0 0,0
20.01.2019 08:00:00 4,7 4,7 2,9 7,5 9,1 2 1 9 5 NNE 1011,9 3,3 0 0,0
20.01.2019 07:00:00 4,6 4,6 4,1 7,6 9,2 5 3 7 4 W 1011,1 2,1 0 0,0
20.01.2019 06:00:00 4,7 4,7 4,1 7,5 9,1 6 3 7 4 W 1010,7 2,7 0 0,0
20.01.2019 05:00:00 4,7 4,7 2,9 7,6 9,2 4 2 6 4 W 1010,3 4,0 0 0,0
20.01.2019 04:00:00 4,3 4,3 -0,8 7,6 9,2 4 2 7 4 W 1010,0 0,3 0 0,0
20.01.2019 03:00:00 4,4 4,4 -0,8 7,6 9,1 5 3 6 3 WSW 1009,5 0,4 0 0,0
20.01.2019 02:00:00 5,0 5,0 1,5 7,6 9,1 0 0 5 3 N 1009,1 0,2 0 0,0
20.01.2019 01:00:00 5,5 5,5 3,9 7,6 9,1 4 2 7 4 W 1009,0 1,4 0 0,0
20.01.2019 00:00:00 5,5 5,5 4,0 7,6 9,2 3 2 6 3 W 1008,6 0,8 0 0,0
19.01.2019 23:00:00 5,7 5,7 3,5 7,6 9,2 3 2 6 3 SSW 1008,2 0,4 0 0,0
19.01.2019 22:00:00 6,0 6,0 2,9 7,6 9,2 4 2 5 3 S 1007,8 0,9 0 0,0
19.01.2019 21:00:00 6,5 6,4 5,6 7,6 9,2 0 0 6 3 N 1007,5 8 0 0,0
19.01.2019 20:00:00 7,0 6,6 5,2 7,6 9,2 4 2 11 6 SW 1007,4 13 0 1,0
19.01.2019 19:00:00 6,9 6,8 3,6 7,5 9,2 6 4 9 5 S 1007,1 10 0 0,2
19.01.2019 18:00:00 7,4 7,3 3,6 7,5 9,2 5 3 8 4 S 1006,8 19 8 0,0
19.01.2019 17:00:00 8,6 6,7 7,1 7,4 9,2 5 3 16 9 SSW 1006,7 49 3 0,6
19.01.2019 16:00:00 8,5 5,4 7,2 7,4 9,2 9 5 21 11 SW 1006,6 48 0 0,0
19.01.2019 15:00:00 9,9 6,2 10,2 7,3 9,2 10 6 23 13 W 1006,9 39 29 0,0
19.01.2019 14:00:00 10,4 7,6 11,7 7,2 9,2 8 5 18 10 SW 1007,5 18 55 0,0
19.01.2019 13:00:00 8,3 7,5 7,7 7,2 9,2 9 5 15 8 S 1008,5 11 10 0,0
19.01.2019 12:00:00 6,6 6,6 6,8 7,2 9,3 4 2 10 6 S 1009,1 6 0 0,0
19.01.2019 11:00:00 5,6 5,6 5,5 7,1 9,2 5 3 11 6 SE 1009,1 1,9 0 0,0
19.01.2019 10:00:00 5,1 5,1 4,9 7,1 9,2 5 3 12 7 ESE 1009,1 0,2 0 0,0
19.01.2019 09:00:00 4,7 4,7 4,6 7,1 9,3 8 5 11 6 SE 1009,0 0,2 0 0,0
19.01.2019 08:00:00 4,6 4,6 4,6 7,1 9,3 5 3 10 5 SE 1009,1 0,3 0 0,0
19.01.2019 07:00:00 4,7 4,7 4,6 7,1 9,2 6 3 9 5 ESE 1008,8 0,9 0 0,0
19.01.2019 06:00:00 4,7 4,7 4,6 7,1 9,2 6 3 9 5 ESE 1009,3 2,7 0 0,0
19.01.2019 05:00:00 4,8 4,8 4,5 7,1 9,3 7 4 11 6 SE 1009,8 4,9 0 0,0
19.01.2019 04:00:00 4,8 4,7 4,4 7,1 9,3 6 4 17 9 SSE 1010,1 7 0 0,0
19.01.2019 03:00:00 4,7 4,6 4,2 7,1 9,3 10 5 26 14 SSE 1010,4 7 0 0,0
19.01.2019 02:00:00 4,5 4,1 3,9 7,1 9,3 12 7 24 13 SE 1010,7 9 0 0,0
19.01.2019 01:00:00 4,3 3,7 3,7 7,1 9,3 16 9 28 15 SE 1011,3 10 0 0,0
19.01.2019 00:00:00 4,1 3,5 3,5 7,1 9,3 14 8 24 13 SE 1011,9 12 0 0,0
18.01.2019 23:00:00 4,2 2,7 3,3 7,1 9,3 15 8 28 15 SE 1012,2 5 0 0,0
18.01.2019 22:00:00 4,4 2,1 3,2 7,1 9,3 20 11 34 18 ESE 1012,2 21 0 0,0
18.01.2019 21:00:00 4,7 1,5 3,6 7,1 9,3 22 12 36 19 SE 1012,6 17 0 0,0
18.01.2019 20:00:00 4,8 1,5 3,8 7,1 9,3 19 11 32 18 SE 1013,1 22 0 0,0
18.01.2019 19:00:00 4,9 1,2 4,1 7,1 9,3 21 11 32 17 SE 1013,4 26 0 0,0
18.01.2019 18:00:00 5,3 1,4 4,4 7,1 9,4 14 7 29 16 ESE 1014,0 25 0 0,0
18.01.2019 17:00:00 6,0 0,9 5,1 7,0 9,3 19 10 29 16 SE 1014,2 39 0 0,0
18.01.2019 16:00:00 6,7 1,0 6,7 7,0 9,4 19 10 33 18 SSE 1015,1 48 21 0,0
18.01.2019 15:00:00 7,1 0,5 8,5 7,0 9,4 18 10 26 14 SE 1015,6 33 48 0,0
18.01.2019 14:00:00 6,9 0,3 9,9 7,0 9,4 15 8 24 13 SE 1016,4 22 60 0,0
18.01.2019 13:00:00 5,8 -0,1 7,4 7,0 9,4 16 9 24 13 SE 1017,4 16 60 0,0
18.01.2019 12:00:00 4,0 -0,8 4,6 7,1 9,3 16 9 24 13 SE 1018,1 15 60 0,0
18.01.2019 11:00:00 2,0 -0,9 -0,9 7,1 9,4 10 6 19 10 SE 1018,7 15 60 0,0
18.01.2019 10:00:00 0,2 -1,2 -8,5 7,2 9,4 9 5 13 7 ESE 1018,9 12 37 0,0
18.01.2019 09:00:00 -2,5 -2,9 -8,7 7,3 9,4 2 1 11 6 SE 1019,1 15 0 0,0
18.01.2019 08:00:00 -2,6 -3,0 -8,4 7,3 9,4 4 2 10 6 ESE 1019,2 11 0 0,0
18.01.2019 07:00:00 -2,1 -2,5 -5,7 7,4 9,4 2 1 6 3 S 1019,4 5 0 0,0
18.01.2019 06:00:00 -1,4 -1,5 -5,5 7,4 9,4 3 2 5 3 SSE 1019,5 1,1 0 0,0
18.01.2019 05:00:00 -0,9 -0,9 -3,8 7,5 9,4 4 2 5 3 SSE 1020,1 3,5 0 0,0
18.01.2019 04:00:00 -1,5 -1,5 -4,9 7,5 9,4 4 2 6 4 NW 1020,9 1,4 0 0,0
18.01.2019 03:00:00 -0,9 -0,9 -4,8 7,6 9,3 0 0 8 5 N 1020,5 3,8 0 -
18.01.2019 02:00:00 -0,6 -0,9 -4,1 7,7 9,4 3 1 6 3 S 1020,8 5 0 0,0
18.01.2019 01:00:00 -0,5 -0,5 -5,5 7,7 9,4 3 1 5 3 E 1020,9 5 0 0,0
18.01.2019 00:00:00 -0,6 -0,9 -4,3 7,8 9,4 0 0 4 2 N 1021,4 9 0 0,0
17.01.2019 23:00:00 -0,6 -0,9 -4,7 7,8 9,4 0 0 7 4 N 1021,1 11 0 0,0
17.01.2019 22:00:00 1,3 -0,3 -4,9 7,8 9,4 4 2 9 5 ESE 1020,5 24 0 0,0

tt = Température de l'air
td = dewpoint
tt 5cm = Température de l'air 5cm
tt -20cm = Température de l'air -20cm
tt -100cm = Température de l'air -100cm
ff = Vitesse du vent
fx = gusts
dd = Direction du vent
ppp = reduced air pressure
vv = visibility
sd = Ensoleillement
rr = Quantités de précipitations

stations d'obs. à proximité